Regional Weather Roundup
Issued by NWS

Home | Current Version | Previous Version | Graphics & Text | Print | Product List | Glossary On
Versions: 1 2 3 4 5 6 7 8 9 10 11 12 13 14 15 16 17 18 19 20 21 22 23 24 25 26 27 28 29 30 31 32 33 34 35 36 37 38 39 40 41 42 43 44 45 46 47 48 49 50
960
ASUS43 KFSD 211002
RWRSD

WEATHER ROUNDUP FOR SOUTH DAKOTA
NATIONAL WEATHER SERVICE SIOUX FALLS SD
500 AM CDT FRI JUL 21 2017

NOTE: "FAIR" INDICATES FEW OR NO CLOUDS BELOW 12,000 FEET WITH NO
SIGNIFICANT WEATHER AND/OR OBSTRUCTIONS TO VISIBILITY.


SDZ001>005-009-010-012>017-211100-
NORTHWEST AND NORTH CENTRAL SOUTH DAKOTA

CITY           SKY/WX    TMP DP  RH WIND       PRES   REMARKS
BUFFALO          N/A     66  62  87 S12       29.82R
FAITH            N/A     69  67  93 SE24G32   29.80S
MOBRIDGE       CLOUDY    73  64  73 S16       29.78F
$$

SDZ012>016-024>037-041>051-057-063-072>074-211100-
SOUTHWEST AND SOUTH CENTRAL SOUTH DAKOTA

CITY           SKY/WX    TMP DP  RH WIND       PRES   REMARKS
RAPID CTY ARPT CLOUDY    64  63  96 NW7       29.90F
PIERRE         NOT AVBL
CUSTER         CLOUDY    61  57  87 S3        30.04R
ELLSWORTH AFB  CLOUDY    64  64 100 NW3       29.90F
PHILIP         CLOUDY    70  68  93 NE13      29.81F
PINE RIDGE     CLOUDY    70  67  90 E8        29.88S
SPEARFISH      FAIR      64  61  88 SE6       29.92S
WINNER         PTSUNNY   76  73  91 NE12      29.84S
$$

SDZ004>011-016>023-039-040-211100-
NORTHEAST SOUTH DAKOTA

CITY           SKY/WX    TMP DP  RH WIND       PRES   REMARKS
ABERDEEN       CLOUDY    69  65  86 S6        29.84F
WATERTOWN      PTCLDY    71  71 100 S3        29.86F
BROOKINGS      CLOUDY    74  71  91 E5        29.85F
SISSETON         N/A     71  70  96 W7        29.87R
$$

SDZ017-020-022-023-036>040-048>070-211100-
SOUTHEAST SOUTH DAKOTA

CITY           SKY/WX    TMP DP  RH WIND       PRES   REMARKS
SIOUX FALLS    CLOUDY    76  72  87 SE10      29.85S THUNDER
HURON          CLOUDY    74  72  93 NE9       29.82F
CHAMBERLAIN    LGT RAIN  75  75  99 NE5       29.82F
MITCHELL       LGT RAIN  76  73  91 S12       29.78F
YANKTON        CLOUDY    74  69  85 E3        29.81F
$$

ABBREVIATIONS USED IN REMARKS
   TC - TEMPERATURE IN CELSIUS
  WCI - WIND CHILL INDEX
   HX - HEAT INDEX
  VSB - VISIBILITY





USA.gov is the U.S. government's official web portal to all federal, state and local government web resources and services.